Location: Chappelmatt
(46.9934°N, 8.3788°E)
Time: 12:55:26
(UTC+00:00)

Daily predictions for brighter satellites

Satellite Brightness Start Highest point End
(mag) Time Altitude Azimuth Time Altitude Azimuth Time Altitude Azimuth
Cosmos 1898 Rocket 3.9 16:48:19 10° S 16:53:16 44° ESE 16:58:13 10° NE
Cosmos 923 Rocket 4.1 16:48:19 10° NNW 16:53:42 90° W 16:58:59 10° SSE
CZ-4C R/B 3.1 16:52:58 10° N 16:56:08 70° WNW 16:59:21 10° SSW
TELKOM 3 3.6 16:54:10 10° WNW 16:56:10 34° N 16:58:18 10° ENE
Cosmos 1680 Rocket 3.5 16:52:44 10° NNW 16:58:00 77° ENE 17:03:12 10° SSE
Nadezhda 4 Rocket 4.0 16:53:25 10° S 16:59:36 71° E 17:05:44 10° NNE
Meteor 2-10 Rocket 4.1 16:55:26 10° NNW 17:00:46 64° W 17:05:51 10° S
NOAA 12 4.5 16:57:04 10° S 17:02:16 71° WSW 17:07:32 10° NNW
CZ-4B R/B 2.2 17:01:43 10° NNE 17:04:40 30° E 17:07:32 10° SSE
CZ-2D R/B 3.8 17:02:04 10° SE 17:05:35 36° ENE 17:09:07 10° N
Landsat 5 3.8 17:02:02 10° N 17:05:52 61° WNW 17:09:36 10° SSW
MOS 1 Rocket 3.9 17:02:35 10° NNE 17:06:21 29° E 17:10:09 10° SSE
Cosmos-2242 4.0 17:05:50 10° NNE 17:09:28 26° ENE 17:13:06 10° SE
NOAA 11 4.4 17:04:08 10° SSE 17:09:38 80° WSW 17:15:10 10° NNW
NOSS 3-1 (C) 4.2 17:04:35 10° NW 17:12:03 89° NE 17:20:47 10° SE
COSMO-SKYMED 1 3.0 17:09:39 10° NNE 17:13:48 42° E 17:17:56 10° S
BREEZE-M DEB (TANK) 2.1 17:13:09 10° WNW 17:15:24 47° N 17:17:14 14° E
Cosmos 1937 Rocket 3.8 17:10:47 10° S 17:15:54 51° ESE 17:21:03 10° NNE
Cosmos 1758 Rocket 4.3 17:12:52 10° SSE 17:16:50 32° E 17:20:51 10° NNE
Aureole 3 3.0 17:14:15 10° NNW 17:17:18 68° W 17:20:15 10° S
Okean 1-7 Rocket 4.4 17:13:20 10° SSW 17:17:50 57° WNW 17:22:22 10° N
USA 290 2.8 17:18:35 10° N 17:21:33 34° ENE 17:24:29 10° SE
NOSS 2-1 (C) 3.1 17:20:35 10° SW 17:23:54 71° NW 17:27:19 10° NE
Cosmos 1833 Rocket 2.8 17:19:55 10° NNW 17:25:28 56° ENE 17:30:59 10° SE
H-2A R/B 2.5 17:23:23 10° SE 17:28:03 38° ENE 17:32:52 10° N
Meteor 1-21 Rocket 4.4 17:23:54 10° SSW 17:29:26 79° WNW 17:35:04 10° N
NOSS 2-1 (D) 3.3 17:26:34 10° SW 17:29:51 61° NW 17:33:06 11° NNE
Cosmos 1939 Rocket 3.0 17:26:12 10° S 17:30:17 78° WSW 17:34:20 10° NNW
Helios 1A Rocket 3.8 17:27:06 10° SE 17:30:39 28° ENE 17:34:13 10° N
H-2A R/B 2.8 17:26:42 10° N 17:31:01 54° WNW 17:35:11 10° SSW
Cosmos 2344 4.3 17:22:46 10° NW 17:31:56 74° NE 17:44:46 10° SE
USA 229 DEB 3.9 17:26:12 10° NW 17:33:33 89° ENE 17:41:16 10° SE
Cosmos 1602 Rocket 3.5 17:29:13 10° S 17:33:34 85° E 17:37:59 10° N
USA 229 3.9 17:26:19 10° NW 17:33:39 88° NE 17:41:23 10° SE
Cosmos 44 4.0 17:29:10 10° SW 17:33:56 54° NW 17:39:01 10° NNE
SeaSat 1 4.3 17:30:18 10° N 17:34:23 27° NW 17:38:27 10° WSW
CZ-3B R/B 1.9 17:32:10 10° NW 17:34:46 79° NNE 17:42:28 10° ESE
Cosmos 2026 Rocket 4.0 17:28:45 10° S 17:34:47 63° E 17:40:58 10° NNE
Feng Yun 1-1 Rocket 4.2 17:30:04 10° SSE 17:35:34 88° ENE 17:41:15 10° NNW
CSL-04 DEB 4.4 17:31:34 10° NNE 17:35:43 89° WNW 17:39:43 10° SSW
SJ 16-02 3.2 17:33:03 10° WSW 17:36:57 30° WNW 17:40:53 10° N
SKYMED 3 4.5 17:33:33 10° NNE 17:37:55 75° ESE 17:42:15 10° S
YAOGAN 1 2.8 17:35:29 10° SE 17:39:36 45° ENE 17:43:44 10° N
Cosmos 990 Rocket 4.4 17:35:08 10° SSW 17:40:18 66° WNW 17:45:29 10° NNE
Cosmos 1689 Rocket 2.9 17:41:34 27° E 17:41:40 28° E 17:44:09 10° SSE
Cosmos 1553 Rocket 4.2 17:36:03 10° N 17:42:16 50° ENE 17:48:22 10° SSE
Cosmos 1844 Rocket 4.1 17:37:09 10° WSW 17:42:19 35° NW 17:47:30 10° NNE
Aureole 3 Rocket 2.4 17:39:47 10° N 17:43:02 75° E 17:47:05 10° SSE
COSMOS 2406 3.2 17:39:03 10° NNW 17:44:52 86° ENE 17:50:38 10° SSE
Cosmos 2082 Rocket 2.5 17:39:44 10° NNW 17:45:15 46° NE 17:50:43 10° SE
HJ-1C 4.2 17:47:04 28° ENE 17:47:16 29° ENE 17:50:13 10° N
Cosmos 1703 4.0 17:43:50 10° SSW 17:47:38 54° WNW 17:51:28 10° N
Cosmos 1825 Rocket 3.7 17:44:24 10° SSE 17:48:37 49° E 17:52:55 10° NNE
IRS-1C Rocket 4.0 17:43:50 10° SSE 17:49:05 86° ENE 17:54:23 10° NNW
Meteor 1-27 4.3 17:43:38 10° N 17:49:07 52° ENE 17:54:31 10° SSE
NOSS 3-1 (A) 4.1 17:41:41 10° NW 17:49:13 87° SW 17:57:57 10° SE
X-37B 1.5 17:46:48 10° W 17:49:52 43° SSW 17:51:36 21° SE
Cosmos 1812 Rocket 4.0 17:47:56 10° NNW 17:52:16 62° W 17:56:33 10° S
ISS -2.8 17:49:38 10° WNW 17:52:48 35° N 17:53:50 28° NE
Okean O Rocket 3.9 17:51:23 10° SSW 17:55:11 28° W 17:59:00 10° NW
ATLAS 2AS CENTAUR R/B 4.4 17:50:17 10° NW 17:56:10 22° N 18:00:55 13° NE
NOAA 15 4.5 17:51:24 10° SSE 17:56:38 71° ENE 18:01:54 10° N
ATLAS 5 CENTAUR R/B 4.1 17:56:16 10° NNW 17:58:18 12° N 18:00:28 10° NNE
CZ-4 R/B 1.2 17:55:13 10° SSE 17:59:15 84° ENE 18:03:14 10° NNW
Iridium 4 Rocket 3.5 17:55:09 10° N 18:00:34 85° W 18:05:28 10° S
SKYMED 2 4.0 17:57:38 10° N 18:01:56 63° WNW 18:06:13 10° SSW
ERS-2 1.9 17:58:38 12° NNE 18:01:58 76° ESE 18:05:35 10° S
CSL-04 Rocket 3.8 17:58:21 10° SE 18:03:38 53° ENE 18:08:59 10° N
Okean-O 2.5 18:02:17 10° SSE 18:06:44 87° ENE 18:11:12 10° NNW
S3M 4.0 18:02:46 10° N 18:08:47 55° ENE 18:14:47 10° SSE
CZ-4C R/B 4.2 18:04:24 10° NW 18:08:50 19° N 18:11:46 15° NE
USA 234 4.1 18:05:52 21° NE 18:09:28 37° N 18:15:22 10° WNW
Cosmos 1340 4.3 18:07:48 10° SW 18:11:16 35° WNW 18:14:45 10° N
Cosmos 1346 Rocket 2.6 18:07:44 10° S 18:11:40 89° E 18:15:11 13° NNE
Cosmos 1655 Rocket 4.1 18:06:04 10° SSE 18:11:58 48° E 18:17:54 10° NNE
Cosmos 2278 Rocket 2.1 18:06:33 10° SSW 18:12:14 90° ESE 18:17:12 14° NNE
Cosmos 1953 Rocket 3.4 18:10:49 10° S 18:15:06 62° E 18:17:57 20° NNE
CZ-2C R/B 4.0 18:10:00 10° S 18:15:21 54° W 18:21:00 10° NNW
SWARM C 4.3 18:14:24 10° S 18:17:43 80° E 18:18:10 63° NNE
SWARM A 4.1 18:14:31 10° S 18:17:49 86° E 18:18:51 42° N
SAR-Lupe-4 3.5 18:17:50 24° N 18:19:54 81° WNW 18:23:28 10° SSW
Cosmos 2292 Rocket 3.4 18:15:08 10° S 18:19:55 59° E 18:20:41 49° NE
Cosmos 44 Rocket 3.5 18:17:42 10° SSW 18:22:27 51° ESE 18:23:19 46° E
DMSP B5D1-3 4.4 18:23:32 10° NNE 18:28:40 83° ESE 18:33:47 10° SSW
ARGOS 3.1 18:23:25 10° SSE 18:28:48 88° ENE 18:34:13 10° NNW
Meteor 2-2 Rocket 4.4 18:24:27 10° N 18:30:20 56° ENE 18:34:21 21° SE
Cosmos 1869 3.4 18:26:54 10° N 18:30:10 58° NNE 18:30:10 58° NNE
Cosmos 372 Rocket 4.3 18:30:42 10° SSW 18:35:52 66° WNW 18:39:58 17° NNE
CZ-4B R/B 4.2 18:34:24 10° NNW 18:36:39 17° WNW 18:38:51 10° WSW
Cosmos 468 4.4 18:32:54 10° NNW 18:38:12 88° ENE 18:41:13 26° SSE
CZ-2C R/B 2.6 18:33:45 15° NNE 18:38:22 64° E 18:43:56 10° S
Cosmos 494 Rocket 3.8 18:37:01 10° NNW 18:42:11 67° ENE 18:42:29 65° E
Cosmos 2150 Rocket 3.8 18:39:53 10° SSW 18:45:02 79° ESE 18:45:58 60° NE
Cosmos 1048 Rocket 4.0 18:42:01 10° NNW 18:47:11 80° WSW 18:49:36 32° SSE
Cosmos 2297 4.2 18:47:21 10° S 18:51:23 42° SSE 18:51:23 42° SSE
SL-08 RB Rocket 4.0 18:59:19 43° SSW 19:00:34 62° W 19:05:02 10° NNW
H-2A R/B 3.8 19:03:05 10° SSW 19:07:32 31° W 19:12:09 10° NNW
Cosmos 1125 Rocket 3.8 19:04:29 10° SSW 19:08:41 59° SSW 19:08:41 59° SSW
Cosmos 2298 Rocket 4.5 19:07:12 10° SW 19:12:27 60° WNW 19:13:35 48° NNW
Cosmos 2266 Rocket 4.1 19:07:58 10° SSW 19:14:11 74° W 19:20:20 10° N
NOSS 2-2 (C) 4.4 19:14:43 10° NW 19:20:07 88° WNW 19:20:07 88° WNW
Cosmos 1943 Rocket 4.4 19:22:44 10° SSW 19:23:18 13° S 19:23:18 13° S
Cosmos 2082 Rocket 3.8 19:24:09 10° NW 19:29:10 32° WSW 19:33:42 12° SSW
ISS -0.3 19:26:35 10° WNW 19:26:49 11° WNW 19:26:49 11° WNW
ATLAS 5 CENTAUR R/B 4.5 19:41:46 10° NNW 19:42:29 12° NNW 19:42:29 12° NNW
Cosmos 2315 Rocket 4.5 19:40:20 10° NNW 19:46:23 55° W 19:46:33 55° W
ATLAS 2AS CENTAUR R/B 4.1 19:43:09 10° NW 19:48:20 28° N 19:48:20 28° N
USA 234 4.0 19:53:13 44° NNW 19:53:13 44° NNW 19:58:04 10° NW
Cosmos 2278 Rocket 4.4 19:53:00 10° W 19:57:08 20° NW 19:59:05 17° NNW
CZ-4C R/B 4.1 19:53:17 10° NNW 19:56:58 28° N 19:56:58 28° N
